{"data":{"norad_id":65288,"intl_designator":"2025-184R","name":"STARLINK-35018","alt_names":[],"object_type":"PAYLOAD","status":"ACTIVE","operator":null,"country":"US","launch_date":"2025-08-22","launch_site_code":"AFWTR","launch_vehicle":null,"mission":null,"orbit_class":"UNKNOWN","rcs_meters":null,"size_class":null,"mass_kg":null,"dimensions":null,"purposes":["comms"],"wikipedia_slug":null,"has_3d_model":false,"image_url":null,"decayed_at":null,"tle_current":{"epoch":"2026-05-25T03:00:04.746816Z","epoch_age_seconds":58085,"freshness":"FRESH","line1":"1 65288U 25184R   26145.12505494  .00005828  00000+0  40761-3 0  9990","line2":"2 65288  97.4463 197.6598 0002605 129.6748 230.4709 15.05653479 42803","mean_motion":15.05653479,"eccentricity":0.0002605,"inclination_deg":97.4463,"raan_deg":197.6598,"arg_perigee_deg":129.6748,"mean_anomaly_deg":230.4709,"bstar":0.00040761,"rev_number":4280,"period_min":95.639535928041,"perigee_km":547.69583300786,"apogee_km":551.30513213628,"semimajor_km":6927.6374825721,"source":"CELESTRAK","updated_at":"2026-05-25T13:38:20.732531Z"}}}